#timestamp,LO_Frequency,Hit,StdDev 
1697295615.3,286046998.3,N
1697295635.2,286047000.5,N
1697295655.0,286046998.7,N
1697295655.9,286046998.7,N
1697295675.7,286046999.3,N
1697295695.6,286046999.3,N
1697295715.4,286047000.7,N
1697295735.3,286047000.7,N
1697295755.1,286047000.1,N
1697295775.8,286047002.6,N
1697295795.7,286047002.1,N
1697295815.5,286047002.7,N
1697295835.4,286047002.4,N
1697295855.2,286047000.0,N
1697295875.0,286047000.0,N
1697295875.9,286047000.0,N
1697295895.8,286047000.6,N
1697295915.6,286047000.4,N
1697295935.4,286047000.9,N
1697295955.3,286047000.2,N
1697295975.1,286047000.3,N
1697295995.9,286047002.8,N
1697296015.7,286047002.5,N
1697296035.5,286047002.6,N
1697296055.4,286047000.1,N
1697296075.2,286047000.0,N
1697296095.0,286047000.1,N
1697296096.0,286047000.1,N
1697296115.8,286047002.4,N
1697296135.6,286047002.3,N
1697296155.5,286047000.6,N
1697296175.3,286047001.0,N
1697296195.1,286047001.0,N
1697296215.9,286047000.9,N
1697296235.7,286047000.2,N
1697296255.6,286047000.4,N
1697296275.4,286047000.0,N
1697296295.2,286047002.7,N
1697296315.1,286047002.7,N
1697296316.0,286047002.7,N
1697296335.8,286047002.3,N
1697296355.6,286046999.9,N
1697296375.5,286047002.3,N
1697296395.3,286046999.9,N
1697296415.2,286046998.1,N
1697296435.9,286047000.9,N
1697296455.7,286047000.8,N
1697296475.6,286047000.3,N
1697296495.4,286047000.7,N
1697296515.2,286046999.8,N
1697296535.1,286047002.3,N
1697296536.0,286047002.3,N
1697296555.8,286047002.7,N
1697296575.7,286047000.3,N
1697296595.5,286047000.9,N
1697296615.3,286047000.7,N
1697296635.2,286047000.0,N
1697296655.0,286047002.8,N
1697296655.9,286047002.8,N
1697296675.7,286046999.8,N
1697296695.6,286047002.2,N
1697296715.4,286047002.6,N
1697296735.3,286047002.0,N
1697296755.1,286047002.3,N
1697296756.0,286047002.3,N
1697296775.8,286046999.9,N
1697296795.7,286047000.2,N
1697296815.5,286047000.5,N
1697296835.3,286047001.2,N
1697296855.2,286047000.7,N
1697296875.0,286046998.1,N
1697296875.9,286046998.1,N
1697296895.8,286046998.7,N
1697296915.6,286047000.9,N
1697296935.4,286047000.7,N
1697296955.3,286047000.7,N
1697296975.1,286047000.2,N
1697296995.8,286047002.8,N
1697297015.7,286047002.5,N
1697297035.5,286046999.7,N
1697297055.4,286047002.3,N
1697297075.2,286047002.0,N
1697297095.0,286047002.3,N
1697297095.9,286047002.3,N
1697297115.8,286047002.5,N
1697297135.6,286047000.6,N
1697297155.4,286047000.4,N
1697297175.3,286046999.8,N
1697297195.1,286046999.7,N
1697297215.9,286047000.4,N
1697297235.7,286047000.0,N
1697297255.5,286047002.3,N
1697297275.4,286047002.0,N
1697297295.2,286047001.3,N
1697297315.1,286047002.5,N
1697297316.0,286047002.5,N
1697297335.8,286047002.0,N
1697297355.6,286047002.5,N
1697297375.5,286047001.8,N
1697297395.3,286047004.4,Y
1697297415.1,286047002.3,P
1697297435.9,286047002.3,P
1697297455.7,286046999.8,N
1697297475.6,286047000.1,N
1697297495.4,286047002.3,N
1697297515.2,286047002.7,N
1697297535.1,286047000.2,N
1697297536.0,286047000.2,N
1697297555.8,286047000.3,N
1697297575.6,286047000.0,N
1697297595.5,286047000.4,N
1697297615.3,286047000.3,N
1697297635.2,286047002.8,N
1697297655.9,286047000.0,N
1697297675.7,286047000.5,N
1697297695.6,286047001.5,N
1697297715.4,286047002.7,N
1697297735.2,286047002.6,N
1697297755.1,286047002.0,N
1697297756.0,286047002.0,N
1697297775.8,286047002.2,N
1697297795.7,286047000.4,N
1697297815.5,286047000.5,N
1697297835.3,286047000.2,N
1697297855.2,286047000.0,N
1697297875.9,286047002.8,N
1697297895.7,286046999.8,N
1697297915.6,286047002.3,N
1697297935.4,286047002.8,N
1697297955.3,286047001.6,N
1697297975.1,286047002.0,N
1697297976.0,286047002.0,N
1697297995.8,286046999.7,N
1697298015.7,286047002.6,N
1697298035.5,286047000.4,N
1697298055.4,286046999.9,N
1697298075.2,286046999.9,N
1697298095.0,286047002.8,N
1697298095.9,286047002.8,N
1697298115.8,286047000.1,N
1697298135.6,286047000.3,N
1697298155.5,286047000.9,N
1697298175.3,286046999.8,N
1697298195.1,286047001.6,N
1697298215.9,286047002.1,N
1697298235.7,286047002.1,N
1697298255.5,286047002.5,N
1697298275.4,286047002.1,N
1697298295.2,286046999.7,N
1697298315.0,286047001.7,N
1697298316.0,286047001.7,N
1697298335.8,286047001.6,N
1697298355.6,286047002.5,N
1697298375.5,286047002.3,N
1697298395.3,286047002.0,N
1697298415.1,286047004.0,Y
1697298435.9,286047000.1,P
1697298455.7,286047002.4,P
1697298475.6,286047000.0,N
1697298495.4,286046999.7,N
1697298515.2,286047000.5,N
1697298535.1,286047001.1,N
1697298536.0,286047001.1,N
1697298555.8,286046999.1,N
1697298575.7,286046999.1,N
1697298595.5,286046999.6,N
1697298615.3,286046997.0,Y
1697298635.2,286046995.3,P
1697298655.0,286046995.1,N
1697298655.9,286046995.1,N
1697298675.7,286046997.4,N
1697298695.6,286046997.8,N
1697298715.4,286046997.2,N
1697298735.3,286046996.5,N
1697298755.1,286046997.2,N
1697298756.0,286046997.2,N
1697298775.8,286046994.9,Y
1697298795.7,286046998.7,P
1697298815.5,286046999.4,N
1697298835.4,286046999.4,N
1697298855.2,286046996.7,Y
1697298875.0,286046998.1,P
1697298875.9,286046998.1,P
1697298895.8,286047001.2,P
1697298915.6,286046999.0,N
1697298935.4,286046999.2,N
1697298955.3,286046996.7,Y
1697298975.1,286046999.1,P
1697298995.9,286046996.5,P
1697299015.7,286046995.0,P
1697299035.5,286046995.0,N
1697299055.4,286046995.4,N
1697299075.2,286046997.8,N
1697299095.1,286046996.0,N
1697299096.0,286046996.0,N
1697299115.8,286046993.5,Y
1697299135.6,286046999.3,P
1697299155.5,286046998.6,N
1697299175.3,286047001.1,N
1697299195.2,286046998.2,N
